W5GED Weather Reports


Display with metric or nautical units.
time (UTC)temp
F
wind
direction
speed
MPH
gust
MPH
rain 1hr
in
rain 24hr
in
rain mn
in
humidity
%
barometer
mb
20260506023518 78 153 2.0 4.0 0.00 0.00 0.00 86 1008.1
20260506022521 78 158 2.0 5.0 0.00 0.00 0.00 85 1007.9
20260506021518 78 175 2.0 4.0 0.00 0.00 0.00 86 1007.8
20260506020518 79 179 3.0 4.0 0.00 0.00 0.00 85 1007.7
20260506015518 79 168 2.0 4.0 0.00 0.00 0.00 84 1007.6
20260506014518 79 174 2.0 4.0 0.00 0.00 0.00 83 1007.4
20260506013519 79 164 2.0 5.0 0.00 0.00 0.00 82 1007.3
20260506012522 79 150 2.0 7.0 0.00 0.00 0.00 82 1007.1
20260506011519 80 184 2.0 3.0 0.00 0.00 0.00 81 1006.9
20260506010519 80 171 2.0 4.0 0.00 0.00 0.00 81 1006.8
20260506005519 80 169 2.0 5.0 0.00 0.00 0.00 80 1006.7
20260506004520 80 177 1.0 3.0 0.00 0.00 0.00 78 1006.8
20260506003522 80 175 3.0 7.0 0.00 0.00 0.00 78 1006.6
20260506002523 81 171 3.0 6.0 0.00 0.00 0.00 78 1006.5
20260506001523 81 176 3.0 6.0 0.00 0.00 0.00 77 1006.5
20260506000517 81 169 3.0 7.0 0.00 0.00 0.00 78 1006.6
20260505235557 81 180 2.0 5.0 0.00 0.00 0.00 78 1006.5
20260505234517 81 171 3.0 5.0 0.00 0.00 0.00 77 1006.4
20260505233540 81 173 3.0 5.0 0.00 0.00 0.00 78 1006.4
20260505232540 81 178 3.0 7.0 0.00 0.00 0.00 78 1006.5
20260505231518 82 176 3.0 8.0 0.00 0.00 0.00 77 1006.5
20260505230518 82 174 2.0 6.0 0.00 0.00 0.00 78 1006.5
20260505225518 82 178 3.0 7.0 0.00 0.00 0.00 78 1006.5
20260505224558 82 159 3.0 8.0 0.00 0.00 0.00 78 1006.6
20260505223518 83 175 3.0 10.0 0.00 0.00 0.00 76 1006.6
20260505222518 83 174 3.0 8.0 0.00 0.00 0.00 77 1006.6
20260505221518 82 169 3.0 8.0 0.00 0.00 0.00 77 1006.6
20260505220519 83 188 3.0 7.0 0.00 0.00 0.00 76 1006.7
20260505215519 83 166 3.0 7.0 0.00 0.00 0.00 75 1006.8
20260505214519 83 170 3.0 9.0 0.00 0.00 0.00 75 1006.9
20260505213539 84 157 3.0 9.0 0.00 0.00 0.00 75 1007.0
20260505212519 83 170 3.0 8.0 0.00 0.00 0.00 75 1007.1
20260505211539 83 165 3.0 7.0 0.00 0.00 0.00 76 1007.2
20260505210519 83 165 3.0 7.0 0.00 0.00 0.00 75 1007.4
20260505205516 83 173 4.0 8.0 0.00 0.00 0.00 75 1007.5
20260505204557 83 176 4.0 11.0 0.00 0.00 0.00 74 1007.7
20260505203519 83 169 3.0 7.0 0.00 0.00 0.00 74 1007.8
20260505202540 83 165 4.0 10.0 0.00 0.00 0.00 75 1008.0
20260505201520 83 170 4.0 8.0 0.00 0.00 0.00 74 1008.1
20260505200517 84 178 4.0 11.0 0.00 0.00 0.00 74 1008.2
20260505195517 83 168 4.0 9.0 0.00 0.00 0.00 75 1008.2
20260505194520 82 161 3.0 7.0 0.00 0.00 0.00 77 1008.4
20260505193520 82 171 4.0 8.0 0.00 0.00 0.00 77 1008.4
20260505192520 82 193 3.0 6.0 0.00 0.00 0.00 77 1008.5
20260505191520 82 181 4.0 5.0 0.00 0.00 0.00 78 1008.6
20260505190521 81 185 3.0 5.0 0.00 0.00 0.00 78 1008.6
20260505185521 81 171 3.0 7.0 0.00 0.00 0.00 78 1008.6
20260505184521 81 154 3.0 7.0 0.00 0.00 0.00 78 1008.7
20260505183521 82 161 3.0 6.0 0.00 0.00 0.00 77 1008.7
20260505182524 81 168 2.0 5.0 0.00 0.00 0.00 78 1008.8
20260505181541 80 163 4.0 7.0 0.00 0.00 0.00 79 1008.9
20260505180521 80 174 4.0 6.0 0.00 0.00 0.00 80 1009.0
20260505175521 80 174 4.0 7.0 0.00 0.00 0.00 80 1009.1
20260505174521 80 178 3.0 5.0 0.00 0.00 0.00 80 1009.2
20260505173522 79 159 3.0 7.0 0.00 0.00 0.00 81 1009.3
20260505172522 80 169 3.0 7.0 0.00 0.00 0.00 81 1009.3
20260505171522 80 165 3.0 6.0 0.00 0.00 0.00 80 1009.2
20260505170545 80 170 2.0 5.0 0.00 0.00 0.00 81 1009.3
20260505165525 79 168 2.0 4.0 0.00 0.00 0.00 81 1009.4
20260505164517 79 178 4.0 9.0 0.00 0.00 0.00 82 1009.3
20260505163516 78 171 3.0 10.0 0.00 0.00 0.00 85 1009.3
20260505162525 77 166 2.0 4.0 0.00 0.00 0.00 88 1009.4
20260505161516 77 160 3.0 6.0 0.00 0.00 0.00 87 1009.3
20260505160522 78 156 3.0 6.0 0.00 0.00 0.00 85 1009.2
20260505152526 77 178 3.0 5.0 0.00 0.00 0.00 86 1009.0
20260505151517 77 153 2.0 6.0 0.00 0.00 0.00 86 1009.1
20260505150517 76 163 3.0 7.0 0.00 0.00 0.00 87 1009.0
20260505140526 75 170 2.0 3.0 0.00 0.00 0.00 89 1008.8
20260505124528 72 170 1.0 3.0 0.00 0.00 0.00 93 1008.7
20260505123527 71 165 1.0 2.0 0.00 0.00 0.00 94 1008.7
20260505122528 71 165 1.0 2.0 0.00 0.00 0.00 94 1008.6
20260505121528 71 199 1.0 3.0 0.00 0.00 0.00 94 1008.5
20260505120528 71 181 1.0 2.0 0.00 0.00 0.00 94 1008.3
20260505115548 70 173 1.0 3.0 0.00 0.00 0.00 94 1008.1
20260505114528 70 193 1.0 2.0 0.00 0.00 0.00 94 1008.3
20260505113528 70 150 0.0 1.0 0.00 0.00 0.00 93 1008.5
20260505112528 70 332 0.0 1.0 0.00 0.00 0.00 93 1008.4
20260505111529 70 209 1.0 3.0 0.00 0.00 0.00 93 1008.2
20260505110528 70 201 1.0 2.0 0.00 0.00 0.00 93 1008.0
20260505101529 70 159 1.0 2.0 0.00 0.00 0.00 92 1008.2
20260505100529 70 168 1.0 3.0 0.00 0.00 0.00 92 1008.4
20260505095530 70 190 1.0 3.0 0.00 0.00 0.00 92 1008.5
20260505094530 70 161 1.0 4.0 0.00 0.00 0.00 92 1008.3
20260505093529 70 173 2.0 4.0 0.00 0.00 0.00 91 1008.3
20260505092530 70 178 1.0 2.0 0.00 0.00 0.00 91 1008.4
20260505091551 70 197 1.0 2.0 0.00 0.00 0.00 91 1008.6
20260505090531 70 168 2.0 3.0 0.00 0.00 0.00 91 1008.7
20260505085531 70 170 2.0 3.0 0.00 0.00 0.00 91 1008.6
20260505084516 70 174 2.0 4.0 0.00 0.00 0.00 91 1008.7
20260505083531 70 199 1.0 2.0 0.00 0.00 0.00 91 1008.8
20260505082531 70 180 1.0 3.0 0.00 0.00 0.00 91 1008.9
20260505081516 70 182 2.0 3.0 0.00 0.00 0.00 90 1008.9
20260505080516 70 189 2.0 3.0 0.00 0.00 0.00 90 1009.0
20260505075531 70 194 2.0 3.0 0.00 0.00 0.00 90 1009.1
20260505074552 70 175 2.0 4.0 0.00 0.00 0.00 90 1009.1
20260505073532 70 179 2.0 3.0 0.00 0.00 0.00 89 1009.1
20260505072532 70 187 1.0 2.0 0.00 0.00 0.00 88 1009.2
20260505071532 70 166 2.0 4.0 0.00 0.00 0.00 88 1009.2
20260505070517 70 178 2.0 3.0 0.00 0.00 0.00 88 1009.3
20260505065537 70 188 1.0 3.0 0.00 0.00 0.00 87 1009.5
20260505064517 70 190 2.0 4.0 0.00 0.00 0.00 87 1009.6
20260505063537 70 189 2.0 3.0 0.00 0.00 0.00 87 1009.7
20260505062518 70 185 2.0 5.0 0.00 0.00 0.00 87 1009.9
20260505061517 71 173 1.0 3.0 0.00 0.00 0.00 86 1009.9
20260505060518 71 195 2.0 4.0 0.00 0.00 0.00 86 1010.1
20260505055518 71 181 2.0 4.0 0.00 0.00 0.00 86 1010.0
20260505054538 71 172 2.0 4.0 0.00 0.00 0.00 85 1009.9
20260505053518 71 176 2.0 3.0 0.00 0.00 0.00 85 1010.1
20260505052518 71 171 1.0 3.0 0.00 0.00 0.00 85 1010.4
20260505051516 71 177 1.0 3.0 0.00 0.00 0.00 84 1010.4
20260505050517 71 163 2.0 5.0 0.00 0.00 0.00 84 1010.5
20260505041517 72 202 2.0 4.0 0.00 0.00 0.00 82 1010.4
20260505040517 72 180 1.0 2.0 0.00 0.00 0.00 82 1010.6
20260505035518 72 175 2.0 4.0 0.00 0.00 0.00 82 1010.5
20260505034519 72 134 1.0 3.0 0.00 0.00 0.00 81 1010.7
20260505033518 72 163 1.0 4.0 0.00 0.00 0.00 81 1010.7
20260505032518 72 145 1.0 3.0 0.00 0.00 0.00 80 1010.8
20260505031518 73 134 2.0 3.0 0.00 0.00 0.00 80 1010.7
20260505030538 73 173 2.0 4.0 0.00 0.00 0.00 80 1010.6
20260505025518 73 156 2.0 4.0 0.00 0.00 0.00 79 1010.7
20260505024519 73 152 2.0 4.0 0.00 0.00 0.00 78 1010.7